contact:dominique.lefevre@mio.osupytheas.fr, maurice.libes@osupytheas.fr, didier.mallarino@osupytheas.fr
Project:EMSO http://www.emso-fr.org/EMSO-France
Depth: 2436.0 m
Title:EMSO Ligure Ouest : Data MII capteur CSTAR
DateTime,Latitude,Longitude,Instrument_Serial,Reference_Counts,Signal_Counts,Corrected_Signal_raw_counts,Calculated_Beam_c_inverse_meters,Internal_thermistor_counts
DateTime,Latitude,Longitude,Instrument_Serial,Reference_Counts,Signal_Counts,Corrected_Signal_raw_counts,Calculated_Beam_c_inverse_meters,Internal_thermistor_counts
2023-10-21T00:01:25,42.805,6.029,CST-1368DR,4131,4432,11372,01.269,553
2023-10-21T00:04:27,42.805,6.029,CST-1368DR,4131,4433,11374,01.268,553
2023-10-21T00:07:28,42.805,6.029,CST-1368DR,4131,4432,11373,01.268,553
2023-10-21T00:10:30,42.805,6.029,CST-1368DR,4130,4432,11374,01.268,553
2023-10-21T00:13:32,42.805,6.029,CST-1368DR,4131,4432,11372,01.269,553
2023-10-21T00:16:33,42.805,6.029,CST-1368DR,4131,4432,11373,01.268,553
2023-10-21T00:19:35,42.805,6.029,CST-1368DR,4131,4432,11371,01.269,553
2023-10-21T00:22:36,42.805,6.029,CST-1368DR,4131,4433,11375,01.268,553
2023-10-21T00:25:38,42.805,6.029,CST-1368DR,4130,4432,11374,01.268,553
2023-10-21T00:28:39,42.805,6.029,CST-1368DR,4130,4433,11377,01.267,553
2023-10-21T00:31:41,42.805,6.029,CST-1368DR,4131,4433,11374,01.268,552
2023-10-21T00:34:43,42.805,6.029,CST-1368DR,4131,4433,11374,01.268,553
2023-10-21T00:37:44,42.805,6.029,CST-1368DR,4130,4432,11375,01.268,553
2023-10-21T00:40:46,42.805,6.029,CST-1368DR,4130,4433,11376,01.267,553
2023-10-21T00:43:47,42.805,6.029,CST-1368DR,4130,4432,11375,01.268,552
2023-10-21T00:46:49,42.805,6.029,CST-1368DR,4130,4433,11377,01.267,553
2023-10-21T00:49:51,42.805,6.029,CST-1368DR,4131,4432,11373,01.268,553
2023-10-21T00:52:52,42.805,6.029,CST-1368DR,4130,4433,11378,01.266,553
2023-10-21T00:55:54,42.805,6.029,CST-1368DR,4130,4432,11374,01.268,553
2023-10-21T00:58:55,42.805,6.029,CST-1368DR,4130,4433,11377,01.267,552
2023-10-21T01:01:57,42.805,6.029,CST-1368DR,4130,4432,11375,01.268,553
2023-10-21T01:04:58,42.805,6.029,CST-1368DR,4130,4431,11373,01.268,553
2023-10-21T01:08:00,42.805,6.029,CST-1368DR,4131,4433,11373,01.268,553
2023-10-21T01:11:02,42.805,6.029,CST-1368DR,4130,4432,11373,01.268,553
2023-10-21T01:14:03,42.805,6.029,CST-1368DR,4130,4433,11377,01.267,553
2023-10-21T01:17:05,42.805,6.029,CST-1368DR,4131,4433,11374,01.268,552
2023-10-21T01:20:06,42.805,6.029,CST-1368DR,4131,4433,11375,01.268,553
2023-10-21T01:23:08,42.805,6.029,CST-1368DR,4130,4433,11376,01.267,552
2023-10-21T01:26:09,42.805,6.029,CST-1368DR,4131,4433,11375,01.268,553
2023-10-21T01:29:11,42.805,6.029,CST-1368DR,4130,4433,11376,01.267,553
2023-10-21T01:32:13,42.805,6.029,CST-1368DR,4130,4426,11358,01.273,553
2023-10-21T01:35:14,42.805,6.029,CST-1368DR,4130,4433,11376,01.267,553
2023-10-21T01:38:16,42.805,6.029,CST-1368DR,4131,4433,11374,01.268,553
2023-10-21T01:41:17,42.805,6.029,CST-1368DR,4131,4433,11374,01.268,553
2023-10-21T01:44:19,42.805,6.029,CST-1368DR,4130,4433,11376,01.267,553
2023-10-21T01:47:21,42.805,6.029,CST-1368DR,4131,4432,11372,01.269,552
2023-10-21T01:50:22,42.805,6.029,CST-1368DR,4130,4433,11377,01.267,553
2023-10-21T01:53:24,42.805,6.029,CST-1368DR,4130,4433,11377,01.267,553
2023-10-21T01:56:25,42.805,6.029,CST-1368DR,4130,4433,11377,01.267,553
2023-10-21T01:59:27,42.805,6.029,CST-1368DR,4130,4433,11378,01.266,553
2023-10-21T02:02:28,42.805,6.029,CST-1368DR,4130,4432,11375,01.268,553
2023-10-21T02:05:30,42.805,6.029,CST-1368DR,4130,4432,11375,01.268,553
2023-10-21T02:08:32,42.805,6.029,CST-1368DR,4130,4432,11374,01.268,553
2023-10-21T02:11:33,42.805,6.029,CST-1368DR,4130,4433,11376,01.267,553
2023-10-21T02:14:35,42.805,6.029,CST-1368DR,4130,4433,11377,01.267,553
2023-10-21T02:17:36,42.805,6.029,CST-1368DR,4130,4433,11376,01.267,553
2023-10-21T02:20:38,42.805,6.029,CST-1368DR,4130,4433,11377,01.267,552
2023-10-21T02:23:39,42.805,6.029,CST-1368DR,4130,4433,11377,01.267,553
2023-10-21T02:26:41,42.805,6.029,CST-1368DR,4130,4432,11375,01.268,553
2023-10-21T02:29:43,42.805,6.029,CST-1368DR,4130,4432,11375,01.268,553
2023-10-21T02:32:44,42.805,6.029,CST-1368DR,4130,4433,11376,01.267,553
2023-10-21T02:35:46,42.805,6.029,CST-1368DR,4130,4432,11373,01.268,553
2023-10-21T02:38:47,42.805,6.029,CST-1368DR,4130,4433,11377,01.267,552
2023-10-21T02:41:49,42.805,6.029,CST-1368DR,4130,4432,11375,01.268,553
2023-10-21T02:44:51,42.805,6.029,CST-1368DR,4130,4431,11371,01.269,553
2023-10-21T02:47:52,42.805,6.029,CST-1368DR,4130,4432,11374,01.268,553
2023-10-21T02:50:54,42.805,6.029,CST-1368DR,4130,4432,11374,01.268,553
2023-10-21T02:53:55,42.805,6.029,CST-1368DR,4130,4433,11376,01.267,553
2023-10-21T02:56:57,42.805,6.029,CST-1368DR,4130,4432,11374,01.268,553
2023-10-21T02:59:58,42.805,6.029,CST-1368DR,4130,4432,11373,01.268,553
2023-10-21T03:03:00,42.805,6.029,CST-1368DR,4130,4432,11375,01.268,553
2023-10-21T03:06:02,42.805,6.029,CST-1368DR,4130,4432,11375,01.268,552
2023-10-21T03:09:03,42.805,6.029,CST-1368DR,4130,4432,11375,01.268,553
2023-10-21T03:12:05,42.805,6.029,CST-1368DR,4130,4432,11375,01.268,553
2023-10-21T03:15:06,42.805,6.029,CST-1368DR,4130,4432,11374,01.268,552
2023-10-21T03:18:08,42.805,6.029,CST-1368DR,4130,4430,11370,01.269,553
2023-10-21T03:21:09,42.805,6.029,CST-1368DR,4130,4433,11376,01.267,553
2023-10-21T03:24:11,42.805,6.029,CST-1368DR,4130,4432,11374,01.268,553
2023-10-21T03:27:13,42.805,6.029,CST-1368DR,4130,4432,11375,01.268,552
2023-10-21T03:30:14,42.805,6.029,CST-1368DR,4130,4432,11374,01.268,552
2023-10-21T03:33:16,42.805,6.029,CST-1368DR,4130,4433,11376,01.267,553
2023-10-21T03:36:17,42.805,6.029,CST-1368DR,4130,4431,11373,01.268,553
2023-10-21T03:39:19,42.805,6.029,CST-1368DR,4130,4433,11376,01.267,553
2023-10-21T03:42:21,42.805,6.029,CST-1368DR,4130,4432,11375,01.268,553
2023-10-21T03:45:22,42.805,6.029,CST-1368DR,4130,4432,11374,01.268,553
2023-10-21T03:48:24,42.805,6.029,CST-1368DR,4130,4432,11375,01.268,553
2023-10-21T03:51:25,42.805,6.029,CST-1368DR,4130,4432,11374,01.268,552
2023-10-21T03:54:27,42.805,6.029,CST-1368DR,4130,4431,11372,01.269,553
2023-10-21T03:57:28,42.805,6.029,CST-1368DR,4130,4430,11369,01.270,553
2023-10-21T04:00:30,42.805,6.029,CST-1368DR,4130,4432,11374,01.268,553
2023-10-21T04:03:32,42.805,6.029,CST-1368DR,4130,4433,11376,01.267,552
2023-10-21T04:06:33,42.805,6.029,CST-1368DR,4130,4432,11375,01.268,552
2023-10-21T04:09:35,42.805,6.029,CST-1368DR,4130,4432,11374,01.268,553
2023-10-21T04:12:36,42.805,6.029,CST-1368DR,4130,4433,11378,01.266,553
2023-10-21T04:15:38,42.805,6.029,CST-1368DR,4130,4432,11374,01.268,553
2023-10-21T04:18:39,42.805,6.029,CST-1368DR,4130,4433,11376,01.267,552
2023-10-21T04:21:41,42.805,6.029,CST-1368DR,4130,4432,11375,01.268,552
2023-10-21T04:24:43,42.805,6.029,CST-1368DR,4130,4432,11373,01.268,553
2023-10-21T04:27:44,42.805,6.029,CST-1368DR,4130,4433,11376,01.267,553
2023-10-21T04:30:46,42.805,6.029,CST-1368DR,4130,4431,11373,01.268,553
2023-10-21T04:33:48,42.805,6.029,CST-1368DR,4130,4432,11373,01.268,552
2023-10-21T04:36:49,42.805,6.029,CST-1368DR,4130,4431,11371,01.269,553
2023-10-21T04:39:51,42.805,6.029,CST-1368DR,4130,4433,11377,01.267,553
2023-10-21T04:42:53,42.805,6.029,CST-1368DR,4130,4431,11373,01.268,553
2023-10-21T04:45:54,42.805,6.029,CST-1368DR,4130,4431,11372,01.269,553
2023-10-21T04:48:56,42.805,6.029,CST-1368DR,4130,4431,11372,01.269,553
2023-10-21T04:51:57,42.805,6.029,CST-1368DR,4130,4432,11373,01.268,553
2023-10-21T04:54:59,42.805,6.029,CST-1368DR,4130,4433,11376,01.267,553
2023-10-21T04:58:01,42.805,6.029,CST-1368DR,4130,4429,11366,01.271,553
2023-10-21T05:01:02,42.805,6.029,CST-1368DR,4130,4430,11369,01.270,553
2023-10-21T05:04:04,42.805,6.029,CST-1368DR,4130,4430,11370,01.269,553
2023-10-21T05:07:05,42.805,6.029,CST-1368DR,4130,4430,11370,01.269,553
2023-10-21T05:10:07,42.805,6.029,CST-1368DR,4130,4429,11366,01.271,553
2023-10-21T05:13:08,42.805,6.029,CST-1368DR,4130,4429,11366,01.271,553
2023-10-21T05:16:10,42.805,6.029,CST-1368DR,4130,4428,11364,01.271,553
2023-10-21T05:19:12,42.805,6.029,CST-1368DR,4130,4430,11368,01.270,553
2023-10-21T05:22:13,42.805,6.029,CST-1368DR,4130,4428,11365,01.271,553
2023-10-21T05:25:15,42.805,6.029,CST-1368DR,4130,4427,11360,01.273,553
2023-10-21T05:28:16,42.805,6.029,CST-1368DR,4130,4430,11369,01.270,553
2023-10-21T05:31:18,42.805,6.029,CST-1368DR,4130,4428,11365,01.271,553
2023-10-21T05:34:20,42.805,6.029,CST-1368DR,4130,4428,11364,01.271,553
2023-10-21T05:37:21,42.805,6.029,CST-1368DR,4130,4426,11360,01.273,552
2023-10-21T05:40:23,42.805,6.029,CST-1368DR,4130,4428,11363,01.272,553
2023-10-21T05:43:24,42.805,6.029,CST-1368DR,4130,4428,11364,01.271,553
2023-10-21T05:46:26,42.805,6.029,CST-1368DR,4130,4429,11366,01.271,553
2023-10-21T05:49:27,42.805,6.029,CST-1368DR,4130,4428,11364,01.271,553
2023-10-21T05:52:29,42.805,6.029,CST-1368DR,4130,4427,11361,01.272,553
2023-10-21T05:55:31,42.805,6.029,CST-1368DR,4130,4428,11364,01.271,553
2023-10-21T05:58:32,42.805,6.029,CST-1368DR,4130,4428,11364,01.271,553
2023-10-21T06:01:34,42.805,6.029,CST-1368DR,4130,4429,11366,01.271,553
2023-10-21T06:04:35,42.805,6.029,CST-1368DR,4130,4428,11365,01.271,552
2023-10-21T06:07:37,42.805,6.029,CST-1368DR,4130,4428,11365,01.271,552
2023-10-21T06:10:38,42.805,6.029,CST-1368DR,4130,4428,11364,01.271,553
2023-10-21T06:13:40,42.805,6.029,CST-1368DR,4130,4427,11362,01.272,553
2023-10-21T06:16:42,42.805,6.029,CST-1368DR,4130,4428,11363,01.272,552
2023-10-21T06:19:43,42.805,6.029,CST-1368DR,4130,4429,11366,01.271,553
2023-10-21T06:22:45,42.805,6.029,CST-1368DR,4130,4427,11362,01.272,553
2023-10-21T06:25:46,42.805,6.029,CST-1368DR,4130,4427,11362,01.272,553
2023-10-21T06:28:48,42.805,6.029,CST-1368DR,4130,4428,11363,01.272,553
2023-10-21T06:31:50,42.805,6.029,CST-1368DR,4130,4428,11364,01.271,553
2023-10-21T06:34:51,42.805,6.029,CST-1368DR,4130,4427,11362,01.272,552
2023-10-21T06:37:53,42.805,6.029,CST-1368DR,4130,4427,11360,01.273,553
2023-10-21T06:40:54,42.805,6.029,CST-1368DR,4130,4428,11364,01.271,553
2023-10-21T06:43:56,42.805,6.029,CST-1368DR,4130,4427,11361,01.272,553
2023-10-21T06:46:58,42.805,6.029,CST-1368DR,4130,4427,11360,01.273,553
2023-10-21T06:49:59,42.805,6.029,CST-1368DR,4130,4428,11363,01.272,553
2023-10-21T06:53:01,42.805,6.029,CST-1368DR,4130,4423,11350,01.276,553
2023-10-21T06:56:02,42.805,6.029,CST-1368DR,4130,4427,11362,01.272,552
2023-10-21T06:59:04,42.805,6.029,CST-1368DR,4130,4428,11364,01.271,553
2023-10-21T07:02:05,42.805,6.029,CST-1368DR,4130,4427,11362,01.272,553
2023-10-21T07:05:07,42.805,6.029,CST-1368DR,4130,4428,11365,01.271,552
2023-10-21T07:08:09,42.805,6.029,CST-1368DR,4130,4426,11359,01.273,553
2023-10-21T07:11:10,42.805,6.029,CST-1368DR,4130,4428,11363,01.272,553
2023-10-21T07:14:12,42.805,6.029,CST-1368DR,4130,4428,11363,01.272,553
2023-10-21T07:17:13,42.805,6.029,CST-1368DR,4130,4428,11365,01.271,553
2023-10-21T07:20:15,42.805,6.029,CST-1368DR,4130,4427,11362,01.272,553
2023-10-21T07:23:16,42.805,6.029,CST-1368DR,4130,4428,11365,01.271,553
2023-10-21T07:26:18,42.805,6.029,CST-1368DR,4130,4429,11368,01.270,553
2023-10-21T07:29:20,42.805,6.029,CST-1368DR,4130,4431,11371,01.269,553
2023-10-21T07:32:21,42.805,6.029,CST-1368DR,4130,4428,11365,01.271,553
2023-10-21T07:35:23,42.805,6.029,CST-1368DR,4130,4431,11373,01.268,552
2023-10-21T07:38:24,42.805,6.029,CST-1368DR,4130,4428,11364,01.271,553
2023-10-21T07:41:26,42.805,6.029,CST-1368DR,4130,4428,11365,01.271,553
2023-10-21T07:44:28,42.805,6.029,CST-1368DR,4130,4427,11361,01.272,553
2023-10-21T07:47:29,42.805,6.029,CST-1368DR,4130,4427,11362,01.272,553
2023-10-21T07:50:31,42.805,6.029,CST-1368DR,4130,4426,11360,01.273,553
2023-10-21T07:53:32,42.805,6.029,CST-1368DR,4130,4428,11364,01.271,553
2023-10-21T07:56:34,42.805,6.029,CST-1368DR,4130,4428,11364,01.271,553
2023-10-21T07:59:35,42.805,6.029,CST-1368DR,4130,4428,11364,01.271,552
2023-10-21T08:02:37,42.805,6.029,CST-1368DR,4130,4430,11369,01.270,553
2023-10-21T08:05:39,42.805,6.029,CST-1368DR,4130,4429,11367,01.270,553
2023-10-21T08:08:40,42.805,6.029,CST-1368DR,4130,4429,11366,01.271,552
2023-10-21T08:11:42,42.805,6.029,CST-1368DR,4130,4430,11369,01.270,553
2023-10-21T08:14:43,42.805,6.029,CST-1368DR,4130,4428,11364,01.271,553
2023-10-21T08:17:45,42.805,6.029,CST-1368DR,4130,4430,11368,01.270,553
2023-10-21T08:20:46,42.805,6.029,CST-1368DR,4130,4428,11364,01.271,553
2023-10-21T08:23:48,42.805,6.029,CST-1368DR,4130,4428,11365,01.271,553
2023-10-21T08:26:50,42.805,6.029,CST-1368DR,4130,4428,11363,01.272,553
2023-10-21T08:29:51,42.805,6.029,CST-1368DR,4130,4430,11369,01.270,553
2023-10-21T08:32:53,42.805,6.029,CST-1368DR,4130,4429,11366,01.271,553
2023-10-21T08:35:54,42.805,6.029,CST-1368DR,4130,4429,11367,01.270,553
2023-10-21T08:38:56,42.805,6.029,CST-1368DR,4130,4428,11365,01.271,552
2023-10-21T08:41:58,42.805,6.029,CST-1368DR,4130,4429,11368,01.270,552
2023-10-21T08:44:59,42.805,6.029,CST-1368DR,4130,4428,11364,01.271,552
2023-10-21T08:48:01,42.805,6.029,CST-1368DR,4130,4429,11366,01.271,553
2023-10-21T08:51:02,42.805,6.029,CST-1368DR,4130,4428,11365,01.271,553
2023-10-21T08:54:04,42.805,6.029,CST-1368DR,4130,4428,11364,01.271,553
2023-10-21T08:57:06,42.805,6.029,CST-1368DR,4130,4429,11366,01.271,553
2023-10-21T09:00:07,42.805,6.029,CST-1368DR,4130,4428,11365,01.271,553
2023-10-21T09:03:09,42.805,6.029,CST-1368DR,4130,4428,11364,01.271,553
2023-10-21T09:06:10,42.805,6.029,CST-1368DR,4130,4428,11363,01.272,553
2023-10-21T09:09:12,42.805,6.029,CST-1368DR,4130,4429,11368,01.270,553
2023-10-21T09:12:13,42.805,6.029,CST-1368DR,4130,4428,11365,01.271,553
2023-10-21T09:15:15,42.805,6.029,CST-1368DR,4130,4429,11367,01.270,553
2023-10-21T09:18:17,42.805,6.029,CST-1368DR,4130,4428,11364,01.271,552
2023-10-21T09:21:18,42.805,6.029,CST-1368DR,4130,4429,11367,01.270,553
2023-10-21T09:24:20,42.805,6.029,CST-1368DR,4130,4429,11368,01.270,553
2023-10-21T09:27:21,42.805,6.029,CST-1368DR,4130,4428,11364,01.271,553
2023-10-21T09:30:23,42.805,6.029,CST-1368DR,4130,4429,11368,01.270,553
2023-10-21T09:33:25,42.805,6.029,CST-1368DR,4130,4429,11367,01.270,553
2023-10-21T09:36:26,42.805,6.029,CST-1368DR,4130,4428,11364,01.271,553
2023-10-21T09:39:28,42.805,6.029,CST-1368DR,4130,4429,11366,01.271,553
2023-10-21T09:42:29,42.805,6.029,CST-1368DR,4130,4429,11366,01.271,553
2023-10-21T09:45:31,42.805,6.029,CST-1368DR,4130,4429,11368,01.270,553
2023-10-21T09:48:32,42.805,6.029,CST-1368DR,4130,4425,11357,01.274,552
2023-10-21T09:51:34,42.805,6.029,CST-1368DR,4130,4428,11365,01.271,553
2023-10-21T09:54:36,42.805,6.029,CST-1368DR,4130,4430,11368,01.270,553
2023-10-21T09:57:37,42.805,6.029,CST-1368DR,4130,4429,11368,01.270,553
2023-10-21T10:00:39,42.805,6.029,CST-1368DR,4130,4429,11366,01.271,553
2023-10-21T10:03:40,42.805,6.029,CST-1368DR,4130,4429,11368,01.270,553
2023-10-21T10:06:42,42.805,6.029,CST-1368DR,4130,4429,11368,01.270,553
2023-10-21T10:09:43,42.805,6.029,CST-1368DR,4130,4429,11366,01.271,553
2023-10-21T10:12:45,42.805,6.029,CST-1368DR,4130,4429,11367,01.270,553
2023-10-21T10:15:47,42.805,6.029,CST-1368DR,4130,4429,11366,01.271,553
2023-10-21T10:18:48,42.805,6.029,CST-1368DR,4130,4429,11366,01.271,553
2023-10-21T10:21:50,42.805,6.029,CST-1368DR,4130,4430,11370,01.269,553
2023-10-21T10:24:51,42.805,6.029,CST-1368DR,4130,4429,11366,01.271,553
2023-10-21T10:27:53,42.805,6.029,CST-1368DR,4130,4429,11366,01.271,553
2023-10-21T10:30:56,42.805,6.029,CST-1368DR,4130,4428,11365,01.271,553
2023-10-21T10:33:58,42.805,6.029,CST-1368DR,4130,4429,11367,01.270,553
2023-10-21T10:36:59,42.805,6.029,CST-1368DR,4130,4428,11365,01.271,553
2023-10-21T10:40:01,42.805,6.029,CST-1368DR,4130,4428,11365,01.271,553
2023-10-21T10:43:02,42.805,6.029,CST-1368DR,4130,4429,11367,01.270,553
2023-10-21T10:46:04,42.805,6.029,CST-1368DR,4130,4429,11367,01.270,553
2023-10-21T10:49:06,42.805,6.029,CST-1368DR,4130,4428,11363,01.272,553
2023-10-21T10:52:07,42.805,6.029,CST-1368DR,4130,4431,11372,01.269,553
2023-10-21T10:55:09,42.805,6.029,CST-1368DR,4130,4427,11362,01.272,553
2023-10-21T10:58:10,42.805,6.029,CST-1368DR,4130,4428,11364,01.271,553
2023-10-21T11:01:12,42.805,6.029,CST-1368DR,4130,4429,11366,01.271,552
2023-10-21T11:04:13,42.805,6.029,CST-1368DR,4130,4428,11363,01.272,552
2023-10-21T11:07:15,42.805,6.029,CST-1368DR,4130,4428,11364,01.271,553
2023-10-21T11:10:17,42.805,6.029,CST-1368DR,4130,4429,11367,01.270,553
2023-10-21T11:13:18,42.805,6.029,CST-1368DR,4130,4428,11363,01.272,553
2023-10-21T11:16:20,42.805,6.029,CST-1368DR,4130,4428,11363,01.272,553
2023-10-21T11:19:21,42.805,6.029,CST-1368DR,4130,4429,11366,01.271,552
2023-10-21T11:22:23,42.805,6.029,CST-1368DR,4130,4427,11362,01.272,553
2023-10-21T11:25:24,42.805,6.029,CST-1368DR,4130,4428,11364,01.271,553
2023-10-21T11:28:26,42.805,6.029,CST-1368DR,4130,4427,11362,01.272,553
2023-10-21T11:31:28,42.805,6.029,CST-1368DR,4130,4426,11358,01.273,552
2023-10-21T11:34:29,42.805,6.029,CST-1368DR,4130,4428,11365,01.271,553
2023-10-21T11:37:31,42.805,6.029,CST-1368DR,4130,4428,11364,01.271,553
2023-10-21T11:40:32,42.805,6.029,CST-1368DR,4130,4429,11367,01.270,553
2023-10-21T11:43:34,42.805,6.029,CST-1368DR,4130,4429,11367,01.270,553
2023-10-21T11:46:36,42.805,6.029,CST-1368DR,4130,4428,11364,01.271,553
2023-10-21T11:49:37,42.805,6.029,CST-1368DR,4130,4427,11361,01.272,553
2023-10-21T11:52:39,42.805,6.029,CST-1368DR,4130,4428,11365,01.271,553
2023-10-21T11:55:40,42.805,6.029,CST-1368DR,4130,4428,11364,01.271,553
2023-10-21T11:58:42,42.805,6.029,CST-1368DR,4130,4429,11367,01.270,553
2023-10-21T12:01:43,42.805,6.029,CST-1368DR,4130,4429,11368,01.270,553
2023-10-21T12:04:45,42.805,6.029,CST-1368DR,4130,4429,11366,01.271,553
2023-10-21T12:07:47,42.805,6.029,CST-1368DR,4130,4429,11367,01.270,553
2023-10-21T12:10:48,42.805,6.029,CST-1368DR,4130,4431,11371,01.269,553
2023-10-21T12:13:50,42.805,6.029,CST-1368DR,4130,4430,11368,01.270,552
2023-10-21T12:16:51,42.805,6.029,CST-1368DR,4130,4432,11375,01.268,553
2023-10-21T12:19:53,42.805,6.029,CST-1368DR,4130,4431,11373,01.268,553
2023-10-21T12:22:54,42.805,6.029,CST-1368DR,4130,4425,11357,01.274,553
2023-10-21T12:25:56,42.805,6.029,CST-1368DR,4130,4428,11364,01.271,553
2023-10-21T12:28:58,42.805,6.029,CST-1368DR,4130,4430,11369,01.270,553
2023-10-21T12:31:59,42.805,6.029,CST-1368DR,4130,4429,11366,01.271,553
2023-10-21T12:35:01,42.805,6.029,CST-1368DR,4130,4428,11363,01.272,553
2023-10-21T12:38:02,42.805,6.029,CST-1368DR,4130,4426,11359,01.273,553
2023-10-21T12:41:04,42.805,6.029,CST-1368DR,4130,4428,11363,01.272,553
2023-10-21T12:44:06,42.805,6.029,CST-1368DR,4130,4428,11364,01.271,553
2023-10-21T12:47:07,42.805,6.029,CST-1368DR,4130,4425,11357,01.274,552
2023-10-21T12:50:09,42.805,6.029,CST-1368DR,4130,4430,11369,01.270,553
2023-10-21T12:53:10,42.805,6.029,CST-1368DR,4130,4431,11372,01.269,552
2023-10-21T12:56:12,42.805,6.029,CST-1368DR,4130,4428,11364,01.271,553
2023-10-21T12:59:14,42.805,6.029,CST-1368DR,4130,4430,11369,01.270,553
2023-10-21T13:02:15,42.805,6.029,CST-1368DR,4130,4431,11372,01.269,553
2023-10-21T13:05:17,42.805,6.029,CST-1368DR,4130,4430,11369,01.270,553
2023-10-21T13:08:18,42.805,6.029,CST-1368DR,4130,4431,11371,01.269,553
2023-10-21T13:11:20,42.805,6.029,CST-1368DR,4130,4432,11373,01.268,553
2023-10-21T13:14:21,42.805,6.029,CST-1368DR,4130,4429,11368,01.270,553
2023-10-21T13:17:23,42.805,6.029,CST-1368DR,4130,4433,11376,01.267,553
2023-10-21T13:20:25,42.805,6.029,CST-1368DR,4130,4430,11370,01.269,553
2023-10-21T13:23:26,42.805,6.029,CST-1368DR,4130,4432,11375,01.268,553
2023-10-21T13:26:28,42.805,6.029,CST-1368DR,4130,4431,11372,01.269,553
2023-10-21T13:29:29,42.805,6.029,CST-1368DR,4130,4433,11377,01.267,553
2023-10-21T13:32:31,42.805,6.029,CST-1368DR,4130,4433,11377,01.267,552
2023-10-21T13:35:33,42.805,6.029,CST-1368DR,4130,4432,11375,01.268,553
2023-10-21T13:38:34,42.805,6.029,CST-1368DR,4130,4432,11373,01.268,553
2023-10-21T13:41:36,42.805,6.029,CST-1368DR,4130,4433,11376,01.267,553
2023-10-21T13:44:37,42.805,6.029,CST-1368DR,4130,4433,11377,01.267,553
2023-10-21T13:47:39,42.805,6.029,CST-1368DR,4130,4431,11371,01.269,553
2023-10-21T13:50:40,42.805,6.029,CST-1368DR,4130,4432,11374,01.268,553
2023-10-21T13:53:42,42.805,6.029,CST-1368DR,4130,4432,11374,01.268,553
2023-10-21T13:56:44,42.805,6.029,CST-1368DR,4130,4432,11375,01.268,553
2023-10-21T13:59:45,42.805,6.029,CST-1368DR,4130,4432,11375,01.268,552
2023-10-21T14:02:47,42.805,6.029,CST-1368DR,4130,4432,11375,01.268,553
2023-10-21T14:05:48,42.805,6.029,CST-1368DR,4130,4432,11375,01.268,553
2023-10-21T14:08:50,42.805,6.029,CST-1368DR,4130,4431,11371,01.269,553
2023-10-21T14:11:51,42.805,6.029,CST-1368DR,4130,4430,11369,01.270,553
2023-10-21T14:14:53,42.805,6.029,CST-1368DR,4130,4434,11378,01.266,553
2023-10-21T14:17:55,42.805,6.029,CST-1368DR,4130,4433,11376,01.267,553
2023-10-21T14:20:56,42.805,6.029,CST-1368DR,4130,4433,11376,01.267,553
2023-10-21T14:23:58,42.805,6.029,CST-1368DR,4130,4430,11370,01.269,553
2023-10-21T14:26:59,42.805,6.029,CST-1368DR,4130,4429,11368,01.270,553
2023-10-21T14:30:01,42.805,6.029,CST-1368DR,4130,4432,11375,01.268,553
2023-10-21T14:33:03,42.805,6.029,CST-1368DR,4130,4432,11375,01.268,553
2023-10-21T14:36:04,42.805,6.029,CST-1368DR,4130,4430,11369,01.270,553
2023-10-21T14:39:06,42.805,6.029,CST-1368DR,4130,4431,11373,01.268,553
2023-10-21T14:42:07,42.805,6.029,CST-1368DR,4130,4432,11373,01.268,553
2023-10-21T14:45:09,42.805,6.029,CST-1368DR,4130,4432,11373,01.268,553
2023-10-21T14:48:11,42.805,6.029,CST-1368DR,4130,4430,11370,01.269,553
2023-10-21T14:51:12,42.805,6.029,CST-1368DR,4130,4429,11366,01.271,553
2023-10-21T14:54:14,42.805,6.029,CST-1368DR,4130,4432,11373,01.268,553
2023-10-21T14:57:15,42.805,6.029,CST-1368DR,4130,4430,11369,01.270,553
2023-10-21T15:00:17,42.805,6.029,CST-1368DR,4130,4431,11371,01.269,553
2023-10-21T15:03:18,42.805,6.029,CST-1368DR,4130,4430,11370,01.269,553
2023-10-21T15:06:20,42.805,6.029,CST-1368DR,4130,4432,11373,01.268,553
2023-10-21T15:09:22,42.805,6.029,CST-1368DR,4130,4431,11373,01.268,553
2023-10-21T15:12:23,42.805,6.029,CST-1368DR,4130,4431,11373,01.268,553
2023-10-21T15:15:25,42.805,6.029,CST-1368DR,4130,4430,11370,01.269,553
2023-10-21T15:18:26,42.805,6.029,CST-1368DR,4130,4431,11372,01.269,553
2023-10-21T15:21:28,42.805,6.029,CST-1368DR,4130,4432,11373,01.268,553
2023-10-21T15:24:29,42.805,6.029,CST-1368DR,4130,4424,11353,01.275,553
2023-10-21T15:27:31,42.805,6.029,CST-1368DR,4130,4425,11357,01.274,553
2023-10-21T15:30:33,42.805,6.029,CST-1368DR,4130,4425,11357,01.274,552
2023-10-21T15:33:34,42.805,6.029,CST-1368DR,4130,4427,11360,01.273,553
2023-10-21T15:36:36,42.805,6.029,CST-1368DR,4130,4426,11358,01.273,552
2023-10-21T15:39:37,42.805,6.029,CST-1368DR,4130,4428,11363,01.272,553
2023-10-21T15:42:39,42.805,6.029,CST-1368DR,4130,4427,11360,01.273,552
2023-10-21T15:45:41,42.805,6.029,CST-1368DR,4130,4426,11360,01.273,553
2023-10-21T15:48:42,42.805,6.029,CST-1368DR,4130,4426,11358,01.273,553
2023-10-21T15:51:44,42.805,6.029,CST-1368DR,4130,4427,11360,01.273,553
2023-10-21T15:54:45,42.805,6.029,CST-1368DR,4130,4426,11360,01.273,552
2023-10-21T15:57:47,42.805,6.029,CST-1368DR,4130,4427,11360,01.273,552
2023-10-21T16:00:48,42.805,6.029,CST-1368DR,4130,4426,11359,01.273,553
2023-10-21T16:03:50,42.805,6.029,CST-1368DR,4130,4427,11361,01.272,552
2023-10-21T16:06:52,42.805,6.029,CST-1368DR,4130,4426,11360,01.273,553
2023-10-21T16:09:53,42.805,6.029,CST-1368DR,4130,4427,11361,01.272,553
2023-10-21T16:12:55,42.805,6.029,CST-1368DR,4130,4427,11360,01.273,553
2023-10-21T16:15:56,42.805,6.029,CST-1368DR,4130,4424,11353,01.275,553
2023-10-21T16:18:58,42.805,6.029,CST-1368DR,4130,4424,11353,01.275,553
2023-10-21T16:21:59,42.805,6.029,CST-1368DR,4130,4424,11353,01.275,553
2023-10-21T16:25:01,42.805,6.029,CST-1368DR,4130,4425,11355,01.275,553
2023-10-21T16:28:03,42.805,6.029,CST-1368DR,4130,4426,11358,01.273,553
2023-10-21T16:31:04,42.805,6.029,CST-1368DR,4130,4423,11352,01.276,553
2023-10-21T16:34:06,42.805,6.029,CST-1368DR,4130,4422,11348,01.277,553
2023-10-21T16:37:07,42.805,6.029,CST-1368DR,4130,4425,11356,01.274,553